Precipitable_Water
0.64 0.63 0.67 0.65 0.60 0.61 0.59 0.62 0.67 0.75 0.83 0.85 0.85 0.89 0.95 1.01 1.03 1.04 1.05 1.00 0.97 0.91 0.96 0.93 0.96 1.00 0.91 0.77 0.74 1.01 0.95 0.76 0.63 0.51 0.41 0.38 0.38 0.33 0.28 0.30 0.31 0.27 0.30 0.32 0.33 0.32 0.33
0.68 0.64 0.62 0.67 0.63 0.60 0.59 0.61 0.65 0.71 0.79 0.82 0.82 0.84 0.92 1.02 1.04 1.01 1.05 1.01 0.95 0.96 0.97 0.94 0.90 0.93 0.84 0.63 0.95 0.93 0.77 0.62 0.52 0.47 0.42 0.41 0.37 0.35 0.29 0.29 0.26 0.29 0.29 0.29 0.30 0.29 0.30
0.71 0.66 0.63 0.65 0.67 0.62 0.59 0.60 0.63 0.68 0.74 0.77 0.80 0.85 0.89 0.97 1.01 1.00 1.00 0.93 0.93 0.89 0.88 0.86 0.88 0.87 0.73 0.67 0.88 0.79 0.66 0.55 0.52 0.48 0.40 0.40 0.38 0.31 0.32 0.27 0.31 0.28 0.22 0.25 0.27 0.28 0.27
0.69 0.68 0.64 0.64 0.66 0.67 0.59 0.57 0.62 0.65 0.70 0.75 0.77 0.81 0.85 0.92 0.96 0.97 0.97 0.96 0.93 0.89 0.86 0.82 0.84 0.75 0.63 0.85 0.85 0.69 0.62 0.52 0.52 0.50 0.43 0.42 0.38 0.33 0.30 0.32 0.27 0.23 0.22 0.17 0.25 0.26 0.28
0.80 0.67 0.64 0.65 0.64 0.68 0.67 0.56 0.58 0.61 0.65 0.71 0.74 0.76 0.79 0.83 0.89 0.92 0.95 0.99 0.96 0.88 0.86 0.85 0.78 0.70 0.61 0.83 0.66 0.67 0.59 0.48 0.47 0.46 0.43 0.41 0.35 0.31 0.30 0.22 0.19 0.21 0.15 0.15 0.18 0.26 0.24
0.82 0.72 0.66 0.64 0.65 0.63 0.66 0.62 0.53 0.58 0.60 0.64 0.68 0.73 0.74 0.78 0.82 0.83 0.84 0.87 0.84 0.86 0.89 0.89 0.82 0.64 0.69 0.62 0.68 0.63 0.61 0.52 0.42 0.39 0.34 0.32 0.28 0.24 0.24 0.21 0.14 0.16 0.17 0.18 0.17 0.23 0.23
0.78 0.78 0.69 0.65 0.65 0.64 0.64 0.66 0.60 0.52 0.55 0.58 0.60 0.65 0.72 0.73 0.73 0.76 0.76 0.72 0.61 0.59 0.71 0.63 0.67 0.65 0.67 0.71 0.72 0.59 0.58 0.47 0.43 0.36 0.26 0.30 0.22 0.18 0.21 0.22 0.22 0.23 0.20 0.19 0.22 0.26 0.22
0.74 0.77 0.77 0.67 0.64 0.64 0.64 0.64 0.65 0.59 0.54 0.52 0.55 0.58 0.64 0.67 0.70 0.70 0.72 0.61 0.61 0.65 0.48 0.62 0.63 0.68 0.70 0.68 0.53 0.58 0.62 0.42 0.37 0.28 0.30 0.26 0.22 0.27 0.27 0.25 0.22 0.21 0.19 0.18 0.22 0.25 0.22
0.68 0.73 0.78 0.75 0.65 0.63 0.62 0.63 0.64 0.63 0.57 0.54 0.52 0.55 0.57 0.59 0.60 0.59 0.59 0.59 0.75 0.71 0.45 0.51 0.59 0.56 0.59 0.61 0.52 0.50 0.55 0.47 0.37 0.31 0.28 0.23 0.26 0.30 0.26 0.23 0.19 0.19 0.16 0.16 0.16 0.22 0.24
0.62 0.67 0.75 0.77 0.73 0.64 0.61 0.58 0.63 0.66 0.64 0.57 0.53 0.54 0.51 0.52 0.45 0.51 0.47 0.63 0.68 0.66 0.33 0.38 0.47 0.54 0.58 0.53 0.45 0.58 0.56 0.45 0.37 0.29 0.29 0.26 0.31 0.26 0.23 0.21 0.21 0.15 0.25 0.22 0.20 0.18 0.14
0.62 0.61 0.67 0.76 0.75 0.71 0.64 0.58 0.55 0.60 0.64 0.65 0.59 0.59 0.56 0.52 0.44 0.42 0.52 0.65 0.64 0.48 0.17 0.40 0.45 0.63 0.57 0.47 0.48 0.49 0.58 0.45 0.34 0.33 0.28 0.26 0.28 0.25 0.21 0.23 0.26 0.21 0.29 0.26 0.25 0.22 0.21
0.61 0.60 0.61 0.68 0.75 0.76 0.69 0.63 0.54 0.53 0.56 0.61 0.63 0.60 0.57 0.50 0.50 0.53 0.60 0.62 0.46 0.26 0.19 0.33 0.45 0.43 0.41 0.45 0.45 0.48 0.47 0.50 0.48 0.37 0.38 0.35 0.40 0.33 0.30 0.33 0.32 0.34 0.29 0.27 0.27 0.24 0.15
0.61 0.60 0.60 0.61 0.71 0.73 0.77 0.67 0.63 0.53 0.50 0.52 0.56 0.62 0.58 0.54 0.41 0.59 0.58 0.40 0.19 0.18 0.35 0.32 0.35 0.40 0.38 0.36 0.37 0.39 0.38 0.35 0.31 0.27 0.30 0.33 0.34 0.39 0.39 0.31 0.36 0.32 0.24 0.15 0.13 0.13 0.11
0.60 0.59 0.59 0.58 0.64 0.69 0.72 0.75 0.67 0.64 0.53 0.46 0.49 0.56 0.61 0.60 0.59 0.57 0.40 0.24 0.12 0.23 0.26 0.37 0.37 0.36 0.32 0.37 0.37 0.37 0.33 0.29 0.37 0.33 0.29 0.26 0.24 0.35 0.41 0.35 0.29 0.28 0.23 0.12 0.07 0.08 0.09
0.58 0.60 0.59 0.58 0.59 0.67 0.67 0.71 0.73 0.66 0.65 0.53 0.46 0.49 0.50 0.58 0.61 0.53 0.28 0.14 0.17 0.23 0.29 0.28 0.30 0.26 0.28 0.33 0.32 0.32 0.29 0.27 0.33 0.34 0.23 0.23 0.23 0.38 0.38 0.40 0.33 0.25 0.19 0.26 0.17 0.19 0.14
0.54 0.58 0.59 0.59 0.57 0.61 0.64 0.63 0.67 0.69 0.67 0.62 0.49 0.39 0.40 0.56 0.58 0.43 0.26 0.22 0.27 0.34 0.35 0.32 0.20 0.25 0.20 0.25 0.26 0.27 0.26 0.32 0.29 0.34 0.34 0.25 0.15 0.29 0.31 0.37 0.38 0.31 0.34 0.20 0.22 0.13 0.13
0.54 0.55 0.57 0.57 0.57 0.58 0.61 0.59 0.58 0.64 0.67 0.63 0.47 0.36 0.42 0.56 0.46 0.30 0.20 0.26 0.33 0.43 0.43 0.35 0.29 0.26 0.27 0.26 0.28 0.25 0.25 0.32 0.36 0.34 0.36 0.30 0.24 0.23 0.32 0.28 0.27 0.32 0.28 0.31 0.31 0.26 0.17
0.54 0.54 0.53 0.54 0.55 0.55 0.56 0.58 0.56 0.57 0.62 0.58 0.45 0.31 0.51 0.54 0.22 0.26 0.22 0.29 0.36 0.36 0.42 0.38 0.38 0.36 0.32 0.33 0.30 0.29 0.28 0.32 0.42 0.40 0.32 0.35 0.30 0.25 0.29 0.41 0.45 0.41 0.35 0.33 0.21 0.17 0.22
0.53 0.53 0.51 0.50 0.52 0.54 0.53 0.55 0.56 0.55 0.57 0.53 0.42 0.42 0.52 0.46 0.25 0.25 0.28 0.28 0.31 0.29 0.29 0.29 0.28 0.31 0.31 0.25 0.19 0.24 0.24 0.33 0.36 0.31 0.27 0.30 0.22 0.13 0.17 0.27 0.33 0.28 0.30 0.30 0.27 0.25 0.16
0.52 0.52 0.51 0.50 0.51 0.54 0.56 0.55 0.53 0.56 0.54 0.48 0.40 0.37 0.46 0.48 0.45 0.33 0.30 0.25 0.23 0.32 0.28 0.30 0.26 0.28 0.24 0.20 0.23 0.18 0.18 0.27 0.33 0.30 0.33 0.29 0.18 0.11 0.07 0.08 0.16 0.14 0.18 0.22 0.22 0.16 0.14
0.51 0.52 0.53 0.53 0.53 0.52 0.55 0.56 0.54 0.54 0.55 0.46 0.39 0.37 0.46 0.36 0.41 0.41 0.38 0.33 0.29 0.23 0.29 0.29 0.23 0.23 0.20 0.16 0.17 0.16 0.20 0.21 0.28 0.32 0.30 0.25 0.13 0.15 0.15 0.15 0.16 0.15 0.14 0.17 0.16 0.16 0.13
0.54 0.53 0.53 0.56 0.58 0.59 0.58 0.60 0.59 0.53 0.54 0.48 0.35 0.35 0.44 0.39 0.42 0.41 0.40 0.37 0.33 0.32 0.33 0.26 0.22 0.24 0.24 0.18 0.17 0.15 0.19 0.21 0.19 0.28 0.27 0.29 0.17 0.19 0.13 0.16 0.18 0.15 0.17 0.17 0.17 0.19 0.19
0.59 0.58 0.60 0.62 0.65 0.66 0.64 0.65 0.64 0.58 0.54 0.45 0.52 0.54 0.43 0.40 0.40 0.39 0.37 0.39 0.39 0.41 0.38 0.38 0.35 0.31 0.26 0.26 0.31 0.30 0.29 0.28 0.27 0.24 0.24 0.25 0.22 0.18 0.11 0.17 0.16 0.10 0.13 0.15 0.16 0.18 0.18
0.70 0.67 0.65 0.67 0.71 0.73 0.73 0.71 0.72 0.69 0.62 0.56 0.57 0.53 0.41 0.35 0.39 0.41 0.44 0.45 0.43 0.45 0.41 0.41 0.41 0.36 0.39 0.46 0.42 0.37 0.33 0.31 0.31 0.31 0.35 0.27 0.25 0.23 0.16 0.18 0.10 0.15 0.23 0.21 0.18 0.19 0.22
0.75 0.77 0.79 0.76 0.76 0.78 0.81 0.81 0.79 0.78 0.74 0.64 0.63 0.54 0.47 0.38 0.43 0.46 0.45 0.47 0.45 0.47 0.48 0.48 0.48 0.49 0.52 0.44 0.30 0.27 0.26 0.28 0.30 0.31 0.33 0.36 0.30 0.22 0.19 0.22 0.25 0.23 0.25 0.27 0.26 0.22 0.23
0.84 0.84 0.86 0.89 0.88 0.87 0.87 0.86 0.84 0.82 0.81 0.72 0.66 0.67 0.55 0.45 0.43 0.49 0.49 0.49 0.48 0.50 0.47 0.49 0.55 0.56 0.49 0.42 0.37 0.27 0.23 0.24 0.25 0.30 0.40 0.36 0.35 0.26 0.26 0.24 0.22 0.27 0.35 0.37 0.37 0.25 0.32
0.86 0.90 0.92 0.93 0.94 0.93 0.91 0.90 0.89 0.86 0.85 0.77 0.69 0.73 0.61 0.51 0.58 0.55 0.51 0.52 0.58 0.56 0.50 0.52 0.55 0.56 0.59 0.45 0.36 0.30 0.28 0.31 0.25 0.26 0.29 0.32 0.33 0.30 0.30 0.28 0.30 0.38 0.37 0.42 0.28 0.29 0.38
0.85 0.88 0.91 0.93 0.94 0.94 0.94 0.93 0.95 0.92 0.88 0.82 0.75 0.80 0.68 0.58 0.62 0.66 0.66 0.60 0.61 0.63 0.55 0.58 0.57 0.57 0.52 0.43 0.38 0.34 0.32 0.33 0.32 0.33 0.32 0.30 0.30 0.31 0.34 0.31 0.27 0.38 0.41 0.34 0.38 0.42 0.42
0.87 0.87 0.88 0.88 0.89 0.92 0.93 0.93 0.94 0.97 0.94 0.93 0.80 0.88 0.85 0.70 0.67 0.79 0.79 0.80 0.77 0.75 0.69 0.67 0.61 0.55 0.53 0.45 0.44 0.42 0.38 0.39 0.37 0.32 0.44 0.34 0.38 0.34 0.36 0.35 0.44 0.45 0.44 0.47 0.47 0.45 0.46
Wind_Speed
31 33 34 36 37 39 40 41 42 42 37 35 33 34 33 33 33 33 24 22 20 23 22 28 29 26 21 17 18 19 19 26 29 30 30 30 28 27 25 24 22 21 21 19 18 17 16
31 32 34 35 37 39 39 40 41 41 35 32 33 33 35 35 35 35 30 29 27 25 26 28 28 25 18 20 18 17 20 26 26 27 27 27 26 24 23 21 20 20 19 18 16 16 16
31 32 33 35 36 38 39 39 39 40 36 32 33 35 36 37 36 35 31 31 29 27 26 25 27 22 21 18 16 16 20 23 24 25 25 24 24 21 23 21 21 19 17 17 15 15 15
31 32 33 34 36 37 38 38 38 38 35 31 31 33 35 37 37 33 32 31 29 26 25 26 24 19 16 16 15 17 19 22 22 24 24 23 21 20 20 20 17 17 16 17 16 15 15
32 31 32 33 34 36 37 37 36 36 34 28 30 32 33 34 35 34 28 30 30 28 26 23 18 19 17 14 16 16 18 20 21 21 20 20 19 18 18 18 16 15 17 16 15 15 15
33 32 31 32 33 34 36 36 36 34 32 29 26 28 29 31 33 32 32 31 33 27 23 18 16 18 15 15 15 15 17 18 19 19 18 16 16 16 16 16 18 18 15 15 15 15 15
33 32 31 31 31 33 34 35 34 34 32 28 25 24 25 28 31 31 24 24 25 27 28 23 19 22 16 14 14 13 15 17 16 16 15 14 15 14 14 15 15 15 15 14 15 15 16
32 32 32 31 30 30 32 33 34 33 32 29 26 24 21 21 23 27 28 25 24 23 24 25 23 18 15 13 13 11 13 15 14 14 14 13 13 13 13 12 12 12 13 13 15 14 15
29 31 32 31 30 29 29 31 32 32 31 29 27 24 22 20 18 18 20 21 19 18 19 20 18 18 15 14 13 10 11 13 13 12 12 14 14 13 13 11 11 9 11 11 13 15 15
27 29 30 31 30 29 28 27 29 30 30 29 27 24 21 18 16 16 15 14 13 12 13 12 12 13 12 12 13 11 10 11 10 13 12 12 13 14 12 11 11 11 11 10 10 11 14
26 27 28 29 30 29 28 26 25 26 27 28 27 25 23 20 16 15 14 13 12 10 11 8 9 9 10 12 10 8 8 9 9 9 10 11 12 12 11 12 11 11 10 9 11 11 13
24 25 26 27 29 29 29 27 25 23 23 24 25 25 23 20 18 16 14 13 15 15 12 10 9 9 10 10 9 7 9 10 9 8 7 10 11 11 12 11 10 11 9 9 10 11 11
22 23 24 25 26 28 29 28 25 23 21 20 21 23 22 21 18 16 15 14 16 18 13 12 11 11 11 10 10 10 8 7 7 8 5 6 7 9 11 10 10 9 8 9 8 8 11
20 21 22 23 24 26 28 28 27 23 21 19 18 20 21 21 18 17 15 16 19 13 13 13 13 12 12 9 9 9 8 8 8 7 8 8 5 9 9 8 10 8 8 8 9 9 11
18 19 20 22 22 24 25 27 27 25 21 17 15 15 19 19 18 16 15 16 13 12 13 13 13 14 11 11 10 11 10 8 6 7 7 8 5 7 7 6 7 7 6 7 6 9 10
16 18 19 20 21 22 23 25 26 26 22 16 14 13 16 17 16 16 16 14 13 12 12 12 12 11 12 10 11 10 8 7 7 6 6 6 6 5 5 5 4 6 6 4 5 3 4
15 16 17 19 19 20 21 22 24 25 23 16 14 12 15 14 13 14 13 13 12 11 11 11 11 11 10 10 10 10 9 8 7 7 6 6 5 3 3 5 5 4 3 2 2 3 3
15 16 16 17 18 19 20 20 22 23 22 17 13 12 13 12 12 11 11 10 10 9 9 10 10 10 9 9 10 9 8 8 8 8 8 6 6 5 5 4 4 4 4 4 3 4 5
16 16 16 17 17 18 19 19 20 21 19 16 13 11 12 11 10 9 8 8 7 6 6 6 6 7 7 7 7 7 6 6 7 6 5 5 4 3 2 0 2 5 5 5 5 5 8
16 17 17 17 17 17 18 19 19 19 16 13 11 12 12 12 10 8 6 5 4 4 4 3 3 4 4 3 4 3 3 3 2 2 1 1 1 3 3 4 3 6 7 8 8 8 9
18 18 18 17 17 18 18 18 18 18 15 12 11 10 10 11 11 8 7 5 4 3 3 2 2 1 0 1 1 1 1 1 2 2 2 2 4 4 8 10 11 13 14 12 15 15 13
20 19 19 18 18 18 18 18 18 18 15 11 10 10 10 10 10 8 8 6 4 4 3 4 4 3 4 4 3 3 3 4 5 4 4 6 7 7 11 11 11 14 16 17 19 21 22
22 22 21 20 20 19 19 19 18 18 15 12 12 11 11 11 11 10 9 7 7 6 6 6 6 5 7 8 8 8 8 8 8 7 7 7 7 8 10 9 14 12 9 11 10 14 16
25 24 23 23 22 21 20 20 19 18 16 13 13 13 12 13 13 12 12 11 10 9 9 8 7 7 8 7 9 10 10 11 10 11 10 8 8 8 11 12 8 9 12 11 10 14 16
28 27 26 25 24 22 21 20 19 18 17 15 15 14 14 15 15 16 14 14 14 12 12 12 12 11 10 9 9 10 9 9 8 9 12 11 9 10 9 10 15 9 7 8 11 14 11
30 30 28 27 26 24 22 21 20 19 18 17 16 16 16 16 16 16 16 15 15 15 14 13 12 11 10 10 9 10 10 9 8 8 8 9 10 10 10 11 12 12 12 11 12 12 12
34 32 31 29 28 27 25 23 21 20 19 18 17 18 17 17 18 17 18 18 17 16 15 15 14 13 13 12 12 12 13 11 11 10 9 9 12 15 15 15 17 17 15 15 14 17 21
34 33 32 31 30 29 28 27 25 23 21 20 20 20 19 19 21 18 18 18 18 18 17 16 15 15 14 14 13 14 13 13 13 12 12 12 12 14 14 16 18 13 15 19 23 25 27
33 32 31 31 31 30 30 29 28 27 26 24 23 23 22 22 23 24 25 22 22 21 19 19 19 16 16 14 15 14 16 15 16 17 16 17 16 17 18 18 20 23 26 27 29 31 30
Wind_Direction
20 18 17 16 15 14 14 15 16 18 25 31 32 30 30 26 26 22 39 55 99 119 123 136 146 150 144 140 149 161 170 174 176 179 180 183 185 189 192 195 200 201 205 208 212 214 218
21 19 19 18 17 17 17 18 19 21 25 30 32 32 30 30 32 41 55 70 96 109 120 128 138 136 137 125 139 148 155 165 170 174 178 181 185 187 188 194 200 200 198 205 211 216 219
21 20 20 19 19 19 19 21 22 24 29 35 37 38 37 39 42 50 63 74 90 100 116 120 136 126 108 134 126 135 153 159 165 169 173 178 181 188 188 189 195 198 199 205 214 220 223
22 20 21 20 20 21 21 23 24 26 30 36 40 40 41 44 47 55 67 77 84 96 109 120 120 128 120 116 127 132 145 152 156 162 167 171 175 179 188 188 196 200 205 208 219 226 229
22 21 21 21 21 22 23 24 25 27 32 38 41 43 45 46 50 55 69 77 81 92 102 107 106 116 118 115 121 134 144 152 158 160 164 171 177 181 188 189 197 208 208 214 220 227 233
22 21 21 21 22 23 24 25 27 28 31 35 38 42 44 48 54 62 72 77 76 82 96 100 99 110 112 114 120 134 144 153 156 164 167 173 179 182 190 195 203 205 207 217 221 234 236
21 21 21 21 22 23 24 26 27 29 31 35 35 39 47 53 57 58 72 75 77 73 75 85 95 111 115 117 116 127 145 154 159 163 168 175 172 181 190 198 199 201 209 217 228 236 244
20 21 21 21 21 22 24 26 28 30 32 36 39 41 45 51 56 58 66 74 76 80 78 78 85 99 106 112 112 110 136 155 161 166 175 174 178 189 187 186 190 203 209 225 236 242 250
18 20 21 21 20 21 22 25 27 29 31 34 37 40 44 47 54 58 64 67 71 77 79 72 78 85 93 97 105 105 125 144 153 162 171 176 185 189 186 191 190 206 206 223 234 253 253
16 17 19 20 20 20 20 22 25 28 31 33 35 37 40 42 53 54 56 50 54 68 73 51 69 77 82 98 97 97 116 139 141 161 169 175 191 187 191 197 205 208 220 228 244 255 256
13 16 17 19 19 19 19 19 21 25 28 31 33 35 38 43 50 48 44 43 53 66 66 45 63 78 75 96 107 86 96 111 132 159 173 190 187 190 195 208 213 214 225 240 251 259 268
10 12 14 16 18 18 19 18 18 20 23 27 31 33 36 41 44 45 44 50 56 60 62 61 71 78 90 78 88 98 101 109 126 116 142 172 188 195 200 206 212 214 237 254 260 264 269
5 8 10 12 15 17 17 17 17 17 19 23 27 31 35 38 41 42 49 55 57 66 68 65 80 81 85 78 81 92 103 108 117 119 135 162 183 195 199 205 218 227 238 257 270 270 260
358 2 6 8 11 14 15 16 16 15 16 21 26 32 34 35 37 43 51 56 60 65 73 77 78 76 84 76 78 79 103 104 104 112 125 142 171 182 195 205 210 221 225 229 246 265 278
349 356 360 3 6 9 11 14 15 14 14 17 24 29 30 30 37 43 49 51 73 75 78 78 75 78 75 78 91 89 93 110 115 116 117 133 140 159 174 187 200 214 231 241 258 273 285
340 346 353 357 0 3 6 9 12 13 12 16 21 25 25 27 37 43 52 62 66 72 74 72 78 80 83 74 83 85 88 104 109 110 115 139 131 158 174 185 210 224 218 251 278 263 276
329 337 343 349 353 356 0 3 7 10 12 17 21 24 19 25 33 41 52 57 64 66 68 71 79 82 84 87 87 87 89 98 105 112 112 128 126 168 171 197 194 190 200 189 200 211 248
318 326 333 339 345 349 353 357 1 5 9 15 18 21 17 22 31 37 45 53 60 63 62 63 72 75 82 86 83 88 95 101 106 107 106 108 115 132 158 157 176 185 195 196 223 253 266
308 316 323 330 336 341 346 349 353 358 4 8 15 13 15 20 30 31 39 45 47 55 55 61 62 65 74 83 79 88 94 91 109 105 108 115 99 89 41 0 238 235 234 239 256 265 249
300 307 313 321 327 333 338 341 344 349 353 360 5 10 9 18 20 28 28 26 32 29 41 48 53 59 63 58 62 85 82 83 121 106 111 89 177 216 226 252 252 256 253 250 250 263 268
290 298 305 311 317 324 329 333 337 340 340 344 351 354 2 360 6 8 1 1 357 343 339 331 350 296 25 1 358 324 307 310 303 281 303 288 278 275 280 274 273 269 267 257 249 255 259
283 289 295 301 308 314 320 325 329 332 328 329 327 331 337 340 344 348 342 322 312 317 305 302 286 282 258 261 252 272 271 274 274 289 274 294 291 299 290 291 278 278 272 262 260 262 268
279 283 287 292 298 303 309 314 319 324 320 312 312 313 316 317 322 325 318 317 306 299 293 285 281 286 279 274 268 272 270 272 269 263 266 276 286 304 286 296 297 290 276 253 266 269 266
275 279 282 286 290 294 300 305 308 314 315 305 303 304 306 304 304 301 304 298 297 290 286 282 275 276 283 286 287 285 282 275 269 267 265 264 276 282 288 308 300 285 289 277 268 282 269
272 275 278 281 284 288 292 296 300 303 307 302 300 298 299 298 296 297 290 289 291 288 284 279 274 272 278 286 288 294 289 284 287 282 264 266 265 284 286 288 293 291 299 286 286 296 289
269 271 274 275 278 281 285 288 292 295 299 299 298 299 298 299 292 291 291 286 282 280 284 277 277 273 273 275 277 276 274 284 279 283 293 267 268 265 284 290 280 278 289 287 294 290 295
267 269 270 271 273 275 277 280 282 287 291 293 294 296 297 298 293 290 286 283 279 275 272 272 272 271 270 269 268 267 273 272 274 265 266 268 272 261 267 282 287 280 274 291 296 288 300
264 266 267 269 270 272 273 273 274 276 281 286 289 290 293 293 295 286 286 280 277 273 270 268 273 268 266 263 266 268 267 269 274 268 265 262 265 272 271 277 284 263 286 289 292 295 297
262 264 266 268 270 271 270 270 271 271 273 279 285 284 287 288 288 287 283 278 275 269 268 266 263 262 259 262 265 268 270 271 268 274 272 272 266 273 265 274 280 279 286 292 293 294 296